Orbital Elements at Epoch 2456369.5 (2013-Mar-18.0) TDB
Reference: JPL 10 (heliocentric ecliptic J2000)
Element | Value | Uncertainty (1-sigma) | Units |
e | .9753243637351361 | 2.9535e-06 | |
a | 32.83234422184744 | 0.0040436 | au |
q | .8101589837411138 | 3.2556e-06 | au |
i | 136.3960312451835 | 2.2743e-05 | deg |
node | 320.431171565636 | 7.1633e-05 | deg |
peri | 20.19191150127465 | 0.00022406 | deg |
M | .4627592762098047 | 8.5891e-05 | deg |
tp | 2456281.170881203234 (2012-Dec-19.67088120) | 9.0574e-05 | TDB |
period | 68714.95484062223 188.13 | 12.694 0.03475 | d yr |
n | .005239034222389953 | 9.6784e-07 | deg/d |
Q | 64.85452945995377 | 0.0079873 | au |
|
Additional Model Parameters
Parameter | Value | Uncertainty (1-sigma) |
A1 [EST] | 4.352356350455326E-10 | 1.21E-9 |
A2 [EST] | 7.729121751498065E-10 | 1.544E-10 |
|
| | Orbit Determination Parameters
Additional Information
|